Location: *
(53.9002°N, 27.5624°E)
Time: 12:45:53
(UTC+00:00)

USA 238 - Pass Details

Date: 12 November 2019
Orbit: 1023 x 1189 km, 63.4° (Epoch: 29 November)

Event Time Altitude Azimuth Distance (km) Brightness Sun altitude
Rises 17:27:22 0° 304° (NW) 3,885 7.6 -28.0°
Reaches altitude 10° 17:30:04 10° 309° (NW) 2,951 6.7 -28.4°
Maximum altitude 17:36:57 54° 26° (NNE) 1,355 4.0 -29.4°
Enters shadow 17:37:12 53° 34° (NNE) 1,360 4.0 -29.4°
